{"data":{"norad_id":58421,"intl_designator":"2023-180V","name":"STARLINK-30902","alt_names":[],"object_type":"PAYLOAD","status":"ACTIVE","operator":null,"country":"US","launch_date":"2023-11-22","launch_site_code":"AFETR","launch_vehicle":null,"mission":null,"orbit_class":"UNKNOWN","rcs_meters":null,"size_class":null,"mass_kg":null,"dimensions":null,"purposes":["comms"],"wikipedia_slug":null,"has_3d_model":false,"image_url":null,"decayed_at":null,"tle_current":{"epoch":"2026-09-20T15:40:50.368800Z","epoch_age_seconds":133811,"freshness":"FRESH","line1":"1 58421U 23180V   26263.65336075  .00000429  00000+0  25110-4 0  9995","line2":"2 58421  43.0026  31.4510 0001356 276.1660  83.9038 15.27571645157337","mean_motion":15.27571645,"eccentricity":0.0001356,"inclination_deg":43.0026,"raan_deg":31.451,"arg_perigee_deg":276.166,"mean_anomaly_deg":83.9038,"bstar":2.511e-5,"rev_number":15733,"period_min":94.267264302356,"perigee_km":482.14373380232,"apogee_km":484.00449425644,"semimajor_km":6861.2111140294,"source":"CELESTRAK","updated_at":"2026-09-21T09:00:33.874073Z"}}}